Location: *
(46.3500°N, 10.9000°E)
Time: 21:55:58
(UTC+00:00)

A-11 Canister half - Pass Details

Date: 27 April 2021
Orbit: 1526 x 1682 km, 47.3° (Epoch: 13 May)

Event Time Altitude Azimuth Distance (km) Brightness Sun altitude
Rises 21:10:26 0° 285° (WNW) 4,939 12.4 -23.4°
Reaches altitude 10° 21:17:09 10° 254° (WSW) 3,935 11.3 -24.1°
Maximum altitude 21:19:31 11° 240° (WSW) 3,842 11.1 -24.3°
Drops below altitude 10° 21:21:53 10° 226° (SW) 3,915 11.0 -24.5°
Enters shadow 21:25:03 - 209° (SSW) 4,250 11.0 -24.7°
Sets 21:28:33 0° 194° (SSW) 4,864 - -25.0°
